ATLAS 5 CENTAUR DEB, 43995

Orbit data source: Space-Track

ATLAS 5 CENTAUR DEB, 43995 is space debris in HEO originally from a launch on Wed, 17 Sep 2014 UTC launched from the Air Force Eastern Test Range (AFETR). Debris objects in space refer to the collection of defunct objects orbiting the Earth. Examples of debris include non-operational satellites, rocket bodies, and fragments generated from explosions, collisions, or faulty payload assembly.

Loading next visibility...
Identifier
43995, 2014-055BA
Orbit
HEO
Country
Flag of USUS
Related business
Flag of USUnited Launch Alliance/Lockheed Martin (US)
Manufacturer
Unknown
Mission
Spacecraft
Bus & Motor
Unknown
Mass
Unknown
Launch date (UTC)
2014-09-17 (11 years ago)
Launch vehicle
Unknown
Launch site
Air Force Eastern Test Range (AFETR)
Object type
Payload
Rocket body
Debris
Shape & HBR
Unknown shape, 1.1 m
Radar Cross Section
Small (<0.1 m²)

Expand to show TLE details & history
Last TLE update: 6 months ago

TLE from 6 months ago
0 ATLAS 5 CENTAUR DEB
1 43995U 14055BA  25239.28474288 -.00000067  00000-0  00000-0 0  9993
2 43995  19.9744 162.9985 4855938 134.8809 276.6002  1.88984621 47518
Epoch: 2025-08-27T06:50Z
TLE epoch observation values (Epoch: 2025-08-27T06:50:01.784Z)
Latitude
0.00002°
Longitude
84.66883°
Altitude
25,785.558 km
Speed
3.219 km/s
True Right ascension
10h 51m 45s
True Declination
0° 00' 00"
Sunlit
Object was in daylight at epoch
Visualization orbit readout
Latitude
Unknown
Longitude
Unknown
Altitude
Unknown
Speed
Unknown
Apparent Right ascension
Unknown
Apparent Declination
Unknown
Sunlit
N/A
Visualization observer readout
Local Sidereal Time
07:34:33
Azimuth
Unknown
Elevation
Unknown
Doppler factor
Unknown
Orbital elements
Apogee altitude
34,678.383 km
Perigee altitude
7,838.218 km
Semi-major axis
27,636.438 km
Eccentricity
0.48559
Inclination
19.9744°
RAAN
162.9985°
Arg. of periapsis
134.8809°
True anomaly
225.08006°
Mean anomaly
276.6002°
Eccentric anomaly
250.39125°
Mean motion
0.47241 °/min
Orbital period
762.05 mins
BSTAR
0
Loading maneuver chart data...
Computing Atmospheric mass density...

Documentation

Showing up to 5 results
|